Regional Weather Roundup
Issued by NWS

Home | Current Version | Previous Version | Graphics & Text | Print | Product List | Glossary On
Versions: 1 2 3 4 5 6 7 8 9 10 11 12 13 14 15 16 17 18 19 20 21 22 23 24 25 26 27 28 29 30 31 32 33 34 35 36 37 38 39 40 41 42 43 44 45 46 47 48 49 50
000
ASUS43 KMPX 061101
RWRMN
WEATHER ROUNDUP FOR MINNESOTA
NATIONAL WEATHER SERVICE TWIN CITIES/CHANHASSEN MN
500 AM CST TUE DEC 06 2016


NOTE: "FAIR" INDICATES FEW OR NO CLOUDS BELOW 12,000 FEET WITH NO
SIGNIFICANT WEATHER AND/OR OBSTRUCTIONS TO VISIBILITY. N/A MEANS
CURRENT SKY AND/OR WEATHER CONDITIONS ARE NOT AVAILABLE.

MNZ060>063-068>070-061200-
   Twin Cities Metro

CITY           SKY/WX    TMP DP  RH WIND       PRES   REMARKS
TWIN CITIES    CLOUDY    29  21  72 SW10      29.72S WCI  20
ST PAUL        CLOUDY    30  24  78 SW10G22   29.73S WCI  21
CRYSTAL        CLOUDY    28  18  66 SW20G25   29.71R WCI  15
BLAINE         CLOUDY    30  23  74 SW15      29.69F WCI  19
LAKEVILLE      CLOUDY    27  23  86 W12G22    29.72S WCI  16
EDEN PRAIRIE   CLOUDY    28  20  71 SW16G24   29.72R WCI  16
SOUTH ST PAUL  CLOUDY    31  24  74 SW9G16    29.72S WCI  23
LAKE ELMO      CLOUDY    30  27  86 SW15      29.72S WCI  19
$$
MNZ001>005-007-008-013>017-022>024-027-028-061200-
   Northwest Minnesota

CITY           SKY/WX    TMP DP  RH WIND       PRES   REMARKS
BEMIDJI        CLOUDY    22  18  86 S13G20    29.43S WCI  10
HALLOCK        LGT SNOW  30  28  93 N17       29.29F WCI  18
ROSEAU         LGT SNOW  28  25  86 S21G29    29.32R WCI  15
WARROAD        FLURRIES  30  27  86 S13G24    29.34R WCI  20
THIEF RVR FALL LGT SNOW  24  22  91 S26G35    29.31S FOG     WCI   8
CROOKSTON      CLOUDY    27  25  93 S21       29.32F FOG     WCI  13
FOSSTON        CLOUDY    19  18  93 S23G33    29.38F WCI   2
DETROIT LAKES  CLOUDY    21  18  86 SW18G30   29.46F WCI   6
MOORHEAD       CLOUDY    21  18  86 S20G30    29.43F WCI   6
PARK RAPIDS    CLOUDY    20  12  71 S20       29.49S WCI   4
$$
MNZ006-009>011-018-025>026-061200-
   North Central Minnesota

CITY           SKY/WX    TMP DP  RH WIND       PRES   REMARKS
BAUDETTE       CLOUDY    32  28  85 S18G25    29.35S WCI  20
FLAG ISLAND    LGT SNOW  34  32  93 SE18      29.33S WCI  23
INTL FALLS     CLOUDY    33  31  92 S8        29.43S WCI  26
WASKISH        CLOUDY    28  25  86 S13G23    29.41R WCI  18
BIG FORK       CLOUDY    30  25  80 S15G21    29.46S WCI  19
LONGVILLE      CLOUDY    21  18  86 S15G22    29.52R WCI   8
GRAND RAPIDS   CLOUDY    28  23  81 SW10G17   29.52S WCI  19
CRANE LAKE     CLOUDY    32  30  93 S7        29.50S WCI  26
ORR            CLOUDY    32  27  80 S13G20    29.44F WCI  22
COOK           CLOUDY    34  28  80 S9G17     29.49F WCI  26
$$
MNZ012-019>021-037-061200-
   Northeast Minnesota

CITY           SKY/WX    TMP DP  RH WIND       PRES   REMARKS
DULUTH         CLOUDY    33  29  85 SW18G26   29.55F WCI  22
ELY            CLOUDY    34  34 100 S12G17    29.50F WCI  25
HIBBING        CLOUDY    29  25  85 S9G21     29.51S WCI  20
EVELETH        CLOUDY    32  28  86 SW15      29.52S WCI  22
DULUTH HARBOR  CLOUDY    36  30  80 SW14G22   29.59S
TWO HARBORS    CLOUDY    37  34  87 SW7G17    29.55F
SILVER BAY     CLOUDY    36  36 100 S13G18    29.55F
GRAND MARAIS     N/A     40  36  86 S24       29.63F
G MARAIS ARPRT LGT SNOW  32  28  86 SE10      29.58F WCI  24
$$
MNZ029>031-032-039>041-046>048-054>057-064-061200-
   West Central Minnesota

CITY           SKY/WX    TMP DP  RH WIND       PRES   REMARKS
FERGUS FALLS   CLOUDY    19  12  73 SW21G30   29.59S WCI   3
WHEATON        CLOUDY    19  14  79 SW28G36   29.61F WCI   1
MORRIS         CLOUDY    19  12  73 SW24G33   29.62F WCI   2
ALEXANDRIA     FLURRIES  19  13  77 SW23G32   29.60F WCI   2
ELBOW LAKE     CLOUDY    18  13  79 SW25      29.59S WCI   0
WADENA         FLURRIES  18  12  79 SW18G24   29.53F WCI   2
GLENWOOD       CLOUDY    18  14  86 SW23G35   29.62S WCI   0
APPLETON       CLOUDY    19  10  68 W28G37    29.67F WCI   1
BENSON         FLURRIES  19  10  68 W15G24    29.69R WCI   5
ORTONVILLE     CLOUDY    18  10  73 W15G24    29.68S WCI   3
MADISON        CLOUDY    21  12  68 W22       29.73R WCI   5
WILLMAR        CLOUDY    21  16  79 W24       29.71F WCI   4
$$
MNZ033>034-036-042>043-049>051-058-059-061200-
   Central Minnesota

CITY           SKY/WX    TMP DP  RH WIND       PRES   REMARKS
ST CLOUD       CLOUDY    23  16  74 SW18G25   29.67S WCI   9
PAYNESVILLE    CLOUDY    21  16  83 SW18G25   29.68F WCI   6
AITKIN         CLOUDY    28  19  69 S16G22    29.56R WCI  17
PINE RIVER     CLOUDY    21  16  79 SW8G21    29.59R WCI  12
BRAINERD       CLOUDY    21  16  81 S22G31    29.59R WCI   5
STAPLES        CLOUDY    18  14  86 SW9       29.56F WCI   6
LONG PRAIRIE   CLOUDY    19  14  79 S23G31    29.61S WCI   2
LITTLE FALLS   CLOUDY    21  14  73 SW13G20   29.63S WCI   9
LITCHFIELD     CLOUDY    21  16  79 SW9G21    29.72R WCI  11
BUFFALO        CLOUDY    25  19  77 SW10G18   29.72R WCI  15
MAPLE LAKE     CLOUDY    25  20  80 SW14G21   29.70S WCI  14
$$
MNZ037-044-045-052-053-061200-
   East Central Minnesota

CITY           SKY/WX    TMP DP  RH WIND       PRES   REMARKS
PRINCETON      CLOUDY    27  18  69 SW12G17   29.67S WCI  16
MORA           CLOUDY    28  19  69 SW12G25   29.65S WCI  18
CAMBRIDGE      CLOUDY    28  19  69 SW13G21   29.65F WCI  18
RUSH CITY      CLOUDY    28  23  80 SW15G24   29.66R WCI  17
MOOSE LAKE     CLOUDY    32  25  74 SW15      29.57S WCI  22
HINCKLEY       CLOUDY    30  27  86 SW10      29.63S WCI  21
CLOQUET        CLOUDY    32  25  74 S15G23    29.55F WCI  22
MCGREGOR       CLOUDY    28  23  80 SW16G22   29.57S WCI  17
$$
MNZ071>073-080-081-089-090-097-098-061200-
   Southwest Minnesota

CITY           SKY/WX    TMP DP  RH WIND       PRES   REMARKS
MONTEVIDEO     CLOUDY    19  10  68 W12G24    29.73S WCI   7
GRANITE FALLS  CLOUDY    19  13  76 SW20G28   29.77R WCI   4
CANBY          CLOUDY    19  11  74 SW18G24   29.75S WCI   3
MARSHALL       CLOUDY    16  10  77 W20G31    29.76S WCI  -1
REDWOOD FALLS  CLOUDY    19  10  68 W21G28    29.77S WCI   3
OLIVIA         CLOUDY    21  14  73 W21G26    29.73S WCI   6
PIPESTONE      PTCLDY    16   9  73 W23G32    29.77F WCI  -2
WINDOM         PTCLDY    18  12  79 SW18G24   29.78F WCI   2
WORTHINGTON    PTCLDY    15  10  80 W30       29.79F WCI  -5
JACKSON        CLOUDY    18  12  79 W22       29.80F WCI   0
TRACY          PTCLDY    18  12  78 W16G24    29.77S WCI   3
SLAYTON        CLEAR     15  10  81 W26G33    29.75F WCI  -5
$$
MNZ065>067-074>077-082>085-091>093-061200-
   South Central Minnesota

CITY           SKY/WX    TMP DP  RH WIND       PRES   REMARKS
MANKATO        CLOUDY    25  17  72 W16       29.77R WCI  12
NEW ULM        CLOUDY    21  16  79 W18       29.77F WCI   6
ST JAMES       CLOUDY    21  16  79 SW17G26   29.80S WCI   7
FAIRMONT       CLOUDY    23  17  78 W24       29.80S WCI   7
GLENCOE        CLOUDY    25  20  83 SW12G17   29.74S WCI  14
FARIBAULT      CLOUDY    28  23  80 SW12G21   29.75S WCI  18
OWATONNA       CLOUDY    30  25  80 SW16G23   29.75S WCI  19
WASECA         CLOUDY    30  25  80 SW20      29.78R WCI  18
ALBERT LEA     CLOUDY    32  27  80 W12G21    29.77S WCI  23
$$
MNZ078>079-086>088-094>096-061200-
   Southeast Minnesota

CITY           SKY/WX    TMP DP  RH WIND       PRES   REMARKS
ROCHESTER      LGT SNOW  31  29  92 W12       29.74S FOG     WCI  22
RED WING       LGT SNOW  32  28  86 W7        29.73R WCI  26
STANTON        CLOUDY    32  26  77 W10G16    29.73R WCI  24
DODGE CENTER   CLOUDY    30  27  86 W15G22    29.73F WCI  19
WINONA         CLOUDY    34  32  93 S3        29.75F
AUSTIN         LGT SNOW  30  27  86 W10G16    29.76S WCI  21
PRESTON        LGT SNOW  32  31  95 SW7       29.75S WCI  26
$$
ABBREVIATIONS USED IN REMARKS
   TC - TEMPERATURES IN CELSIUS
  WCI - WIND CHILL INDEX
   HX - HEAT INDEX
  VSB - VISIBILITY
$$



USA.gov is the U.S. government's official web portal to all federal, state and local government web resources and services.